Location: ?????
(33.6267°N, 35.4675°E)
Time: 23:18:56
(UTC+00:00)

Starlink Launch 2 leader - Pass Details

Date: 12 November 2019
Orbit: 279 x 281 km, 53.0° (Epoch: 13 November)

Event Time Altitude Azimuth Distance (km) Brightness Sun altitude
Rises 15:25:00 0° 311° (NW) 1,924 6.9 -10.3°
Reaches altitude 10° 15:26:56 10° 307° (NW) 1,107 5.8 -10.6°
Maximum altitude 15:29:20 53° 228° (SW) 347 3.0 -11.1°
Drops below altitude 10° 15:31:43 10° 149° (SSE) 1,101 5.0 -11.6°
Enters shadow 15:33:00 - 145° (SE) 1,638 5.8 -11.9°
